EZY21VB LIRF-EGKK

Flight info

Callsign EZY21VB
Flight time N/A
Altitude 38000
Route PODOX DCT TOBGA DCT DOBIM DCT PIGOS DCT BARSO DCT OKTET DCT GIPNO DCT BULOL DCT IDAVO DCT BAGBI DCT SIZZA DCT LAULY DCT BRY DCT CLM DCT KOPOR DCT KESAX DCT KUNAV
Aircraft A320/M-SDE3FGHIRWY/LB1

Departure

Time 2026-05-05 16:47
Airport Rome–Fiumicino Leonardo da Vinci International Airport (LIRF)

Arrival

Time N/A
Airport London Gatwick Airport (EGKK)
Time Latitude Longitude Altitude Speed Heading
2026-05-05 16:29 41.79688 12.25620 14 ft 0 kts 295°
2026-05-05 16:39 41.79685 12.25629 15 ft 3 kts 297°
2026-05-05 16:39 41.79674 12.25654 16 ft 3 kts 314°
2026-05-05 16:39 41.79657 12.25670 15 ft 3 kts 351°
2026-05-05 16:40 41.79643 12.25669 14 ft 0 kts 25°
2026-05-05 16:41 41.79693 12.25700 14 ft 21 kts 25°
2026-05-05 16:42 41.79805 12.25770 14 ft 17 kts 25°
2026-05-05 16:42 41.79919 12.25852 14 ft 24 kts 25°
2026-05-05 16:42 41.80058 12.25937 14 ft 23 kts 24°
2026-05-05 16:42 41.80230 12.26044 14 ft 28 kts 25°
2026-05-05 16:43 41.80405 12.26153 16 ft 27 kts 22°
2026-05-05 16:43 41.80528 12.26243 16 ft 21 kts 64°
2026-05-05 16:43 41.80589 12.26456 16 ft 26 kts 70°
2026-05-05 16:43 41.80651 12.26690 16 ft 27 kts 69°
2026-05-05 16:44 41.80712 12.26910 14 ft 19 kts 70°
2026-05-05 16:44 41.80761 12.27039 13 ft 15 kts 35°
2026-05-05 16:44 41.80834 12.27029 14 ft 8 kts 341°
2026-05-05 16:44 41.80864 12.27015 13 ft 3 kts 338°
2026-05-05 16:45 41.80873 12.27010 13 ft 0 kts 339°
2026-05-05 16:45 41.80881 12.27006 13 ft 7 kts 339°
2026-05-05 16:45 41.80950 12.26956 13 ft 12 kts 307°
2026-05-05 16:45 41.80945 12.26881 15 ft 0 kts 248°
2026-05-05 16:46 41.80905 12.26737 15 ft 51 kts 250°
2026-05-05 16:47 41.80700 12.25998 19 ft 118 kts 249°
2026-05-05 16:47 41.80351 12.24727 28 ft 169 kts 249°
2026-05-05 16:47 41.79945 12.23260 637 ft 167 kts 241°
2026-05-05 16:47 41.79539 12.21768 1279 ft 176 kts 247°
2026-05-05 16:48 41.79328 12.20026 1736 ft 203 kts 261°
2026-05-05 16:48 41.79254 12.18029 2152 ft 227 kts 263°
2026-05-05 16:48 41.79181 12.15809 2620 ft 249 kts 263°
2026-05-05 16:48 41.79113 12.13444 3450 ft 257 kts 264°
2026-05-05 16:49 41.79052 12.11028 4380 ft 262 kts 264°
2026-05-05 16:49 41.79002 12.08613 5357 ft 263 kts 267°
2026-05-05 16:49 41.78988 12.06144 6313 ft 265 kts 267°
2026-05-05 16:49 41.78992 12.03668 7290 ft 264 kts 267°
2026-05-05 16:50 41.78999 12.01219 8310 ft 263 kts 268°
2026-05-05 16:50 41.79003 11.98737 9150 ft 268 kts 268°
2026-05-05 16:50 41.79146 11.96218 9946 ft 277 kts 282°
2026-05-05 16:50 41.79984 11.93849 10553 ft 294 kts 300°
2026-05-05 16:51 41.81188 11.91490 10869 ft 316 kts 302°
2026-05-05 16:51 41.82048 11.89898 11256 ft 322 kts 303°
2026-05-05 16:51 41.83398 11.87455 11964 ft 329 kts 304°
2026-05-05 16:51 41.84779 11.84983 12704 ft 333 kts 304°
2026-05-05 16:52 41.86158 11.82507 13471 ft 336 kts 303°
2026-05-05 16:52 41.87556 11.79976 14200 ft 340 kts 303°
2026-05-05 16:52 41.88961 11.77409 14869 ft 343 kts 303°
2026-05-05 16:52 41.90374 11.74808 15538 ft 346 kts 303°
2026-05-05 16:53 41.91797 11.72176 16190 ft 350 kts 303°
2026-05-05 16:53 41.93232 11.69520 16849 ft 353 kts 303°
2026-05-05 16:53 41.94680 11.66836 17497 ft 357 kts 302°
2026-05-05 16:53 41.96144 11.64118 18114 ft 361 kts 302°
2026-05-05 16:54 41.97626 11.61365 18682 ft 365 kts 302°
2026-05-05 16:54 41.99119 11.58590 19250 ft 368 kts 302°
2026-05-05 16:54 42.00608 11.55823 19826 ft 371 kts 302°
2026-05-05 16:54 42.02126 11.53002 20404 ft 374 kts 302°
2026-05-05 16:55 42.03652 11.50162 20984 ft 376 kts 302°
2026-05-05 16:55 42.05191 11.47292 21561 ft 379 kts 302°
2026-05-05 16:55 42.06741 11.44403 22113 ft 383 kts 302°
2026-05-05 16:55 42.08304 11.41487 22680 ft 386 kts 302°
2026-05-05 16:56 42.09878 11.38542 23231 ft 389 kts 302°
2026-05-05 16:56 42.11462 11.35577 23743 ft 391 kts 302°
2026-05-05 16:56 42.13056 11.32595 24209 ft 393 kts 302°
2026-05-05 16:56 42.14656 11.29599 24707 ft 394 kts 302°
2026-05-05 16:57 42.16255 11.26598 25171 ft 395 kts 301°
2026-05-05 16:57 42.17843 11.23616 25631 ft 396 kts 301°
2026-05-05 16:57 42.19449 11.20599 26082 ft 397 kts 301°
2026-05-05 16:57 42.21059 11.17572 26523 ft 398 kts 301°
2026-05-05 16:58 42.22671 11.14534 26959 ft 399 kts 301°
2026-05-05 16:58 42.24286 11.11489 27399 ft 400 kts 301°
2026-05-05 16:58 42.25905 11.08436 27832 ft 400 kts 300°
2026-05-05 16:58 42.27505 11.05413 28237 ft 402 kts 300°
2026-05-05 16:59 42.29129 11.02338 28643 ft 403 kts 300°
2026-05-05 16:59 42.30755 10.99257 29030 ft 404 kts 300°
2026-05-05 16:59 42.32387 10.96162 29417 ft 405 kts 300°
2026-05-05 16:59 42.34005 10.93091 29791 ft 406 kts 300°
2026-05-05 17:00 42.35646 10.89978 30156 ft 407 kts 300°
2026-05-05 17:00 42.37288 10.86854 30459 ft 409 kts 300°
2026-05-05 17:00 42.38938 10.83710 30705 ft 410 kts 299°
2026-05-05 17:00 42.40592 10.80558 30964 ft 412 kts 299°
2026-05-05 17:01 42.42254 10.77389 31216 ft 413 kts 299°
2026-05-05 17:01 42.43922 10.74208 31451 ft 415 kts 299°
2026-05-05 17:01 42.45590 10.71026 31778 ft 414 kts 299°
2026-05-05 17:01 42.47253 10.67850 32124 ft 413 kts 299°
2026-05-05 17:02 42.48911 10.64678 32464 ft 412 kts 299°
2026-05-05 17:02 42.50564 10.61508 32803 ft 411 kts 299°
2026-05-05 17:02 42.52211 10.58341 33140 ft 410 kts 298°
2026-05-05 17:02 42.53853 10.55182 33490 ft 410 kts 298°
2026-05-05 17:03 42.55496 10.52022 33812 ft 410 kts 298°
2026-05-05 17:03 42.57137 10.48863 34130 ft 409 kts 298°
2026-05-05 17:03 42.58772 10.45712 34427 ft 408 kts 298°
2026-05-05 17:03 42.60402 10.42566 34719 ft 407 kts 298°
2026-05-05 17:04 42.62027 10.39425 35009 ft 406 kts 298°
2026-05-05 17:04 42.63646 10.36294 35284 ft 405 kts 298°
2026-05-05 17:04 42.65261 10.33165 35551 ft 404 kts 298°
2026-05-05 17:04 42.66874 10.30044 35817 ft 403 kts 298°
2026-05-05 17:05 42.68467 10.26960 36061 ft 402 kts 298°
2026-05-05 17:05 42.70071 10.23847 36304 ft 402 kts 298°
2026-05-05 17:05 42.71669 10.20734 36543 ft 401 kts 298°
2026-05-05 17:05 42.73264 10.17628 36793 ft 400 kts 298°
2026-05-05 17:06 42.75093 10.14800 37012 ft 414 kts 315°
2026-05-05 17:06 42.77649 10.12856 37225 ft 428 kts 328°
2026-05-05 17:06 42.80215 10.10927 37424 ft 412 kts 311°
2026-05-05 17:06 42.82018 10.08063 37593 ft 391 kts 292°
2026-05-05 17:07 42.83180 10.04746 37732 ft 389 kts 289°
2026-05-05 17:07 42.84390 10.01442 37908 ft 390 kts 291°
2026-05-05 17:07 42.87032 9.94997 37968 ft 392 kts 294°
2026-05-05 17:08 42.89783 9.88574 37966 ft 392 kts 294°
2026-05-05 17:08 42.92489 9.82122 37980 ft 392 kts 293°
2026-05-05 17:09 42.95151 9.75620 37969 ft 391 kts 290°